SL-14 R/B, 21785

Orbit data source: Space-Track

SL-14 R/B, 21785 is space debris in LEO originally from a launch on Tue, 12 Nov 1991 UTC launched from the Plesetsk Missile And Space Complex (PKMTR). Debris objects in space refer to the collection of defunct objects orbiting the Earth. Examples of debris include non-operational satellites, rocket bodies, and fragments generated from explosions, collisions, or faulty payload assembly.

Loading next visibility...
Identifier
21785, 1991-077G
Orbit
LEO
Country
Flag of CISCIS
Related business
Manufacturer
Yuzhnoe
Mission
Spacecraft
Bus & Motor
S5M, Unknown motor
Mass
1,600 kg wet, 1,600 kg dry
Launch date (UTC)
1991-11-12 (34 years ago)
Launch vehicle
Unknown
Launch site
Plesetsk Missile And Space Complex (PKMTR)
Object type
Payload
Rocket body
Debris
Shape & HBR
Cyl, 1.4 m
Radar Cross Section
7.351 m², Large (>1 m²)

Expand to show TLE details & history
Last TLE update: 9 hours ago

TLE from 9 hours ago
0 SL-14 R/B
1 21785U 91077G   25260.90058777 -.00000007  00000-0 -10482-3 0  9992
2 21785  82.6019 177.1603 0037357 278.6833 150.0185 12.55088270550602
Epoch: 2025-09-17T21:36Z
TLE epoch observation values (Epoch: 2025-09-17T21:36:50.783Z)
Latitude
67.78527°
Longitude
-125.677°
Altitude
1,480.328 km
Speed
7.118 km/s
True Right ascension
13h 02m 25s
True Declination
67° 40' 33"
Sunlit
Object was in daylight at epoch
Visualization orbit readout
Latitude
Unknown
Longitude
Unknown
Altitude
Unknown
Speed
Unknown
Apparent Right ascension
Unknown
Apparent Declination
Unknown
Sunlit
N/A
Visualization observer readout
Local Sidereal Time
23:30:21
Azimuth
Unknown
Elevation
Unknown
Doppler factor
Unknown
Orbital elements
Apogee altitude
1,469.822 km
Perigee altitude
1,411.405 km
Semi-major axis
7,818.751 km
Eccentricity
0.00374
Inclination
82.6019°
RAAN
177.1603°
Arg. of periapsis
278.6833°
True anomaly
150.23156°
Mean anomaly
150.0185°
Eccentric anomaly
150.12511°
Mean motion
3.13933 °/min
Orbital period
114.67 mins
BSTAR
-0.00010482
Loading maneuver chart data...
Computing Atmospheric mass density...
Loading historical data...
Loading historical data...
Loading historical data...
Loading historical data...
Loading historical data...
Loading historical data...
Loading historical data...

Documentation

Showing up to 5 results
|